sat.trackr.live / text

‹ back to catalog

STARLINK-33790

NORAD 64029 · 2025-102H

PAYLOAD ACTIVE UNKNOWN

§ Identity

Operator
Country
US
Launch date
2025-05-16
Launch site
AFWTR
Launch vehicle
Mass (kg)
RCS (m²)

Purposes: comms

External: N2YO · Heavens-Above · Gunter

§ Orbital elements

Epoch: 2026-09-20T22:52:38.122464Z

Period
94.14 min
Inclination
70.0026°
Eccentricity
0.0004144
Mean motion
15.29579390 rev/d
Perigee alt
474.2 km
Apogee alt
479.9 km
Semi-major
6,855.2 km
B*
1.9687e-4
RAAN
339.6132°
Arg perigee
271.3520°
Mean anomaly
88.7180°
Rev number
7,531

§ Raw data

STARLINK-337901 64029U 25102H   26263.95321901  .00005536  00000+0  19687-3 0  99922 64029  70.0026 339.6132 0004144 271.3520  88.7180 15.29579390 75316

JSON: /api/v1/satellites/64029 · /tle

For live sub-satellite position, see the globe view (requires WebGL).

§ Visibility from observer

Set your observer location to see the next 7 days of passes ≥ 10°. The values pass through the URL so the page stays shareable.

No JS? Fill the form by hand. The geolocation button needs JavaScript.